Location: Martley
(52.2333°N, 2.3667°W)
Time: 01:29:54
(UTC+00:00)

Cosmos 2034 Rocket - Pass Details

Date: 11 December 2019
Orbit: 957 x 1001 km, 82.9° (Epoch: 19 January)

Event Time Altitude Azimuth Distance (km) Brightness Sun altitude
Rises 05:11:43 0° 200° (SSW) 3,689 6.9 -25.6°
Enters shadow 05:13:27 - 203° (SSW) 3,048 6.4 -25.4°
Exits shadow 05:16:28 23° 211° (SSW) 1,974 5.4 -24.9°
Maximum altitude 05:20:30 61° 285° (WNW) 1,124 4.0 -24.3°
Drops below altitude 10° 05:26:51 10° 5° (N) 2,785 6.4 -23.3°
Sets 05:29:27 0° 10° (N) 3,740 7.1 -22.9°
